WZZ5KF ESNQ-EPGD

Flight info

Callsign WZZ5KF
Flight time 2h 0m
Altitude 35000
Route VAGAS DCT PENOR N133 DOMAG T240 OGDAV
Aircraft A321/M-SDE3FGHIRWYX/LB1

Departure

Time 2026-05-01 10:27
Airport Kiruna Airport (ESNQ)

Arrival

Time 2026-05-01 12:28
Airport Gdańsk Lech Wałęsa Airport (EPGD)
Time Latitude Longitude Altitude Speed Heading
2026-05-01 10:02 67.82504 20.33494 1462 ft 0 kts 26°
2026-05-01 10:22 67.82508 20.33527 1467 ft 4 kts 79°
2026-05-01 10:23 67.82487 20.33608 1463 ft 4 kts 134°
2026-05-01 10:23 67.82420 20.33798 1463 ft 9 kts 123°
2026-05-01 10:23 67.82394 20.33925 1462 ft 8 kts 105°
2026-05-01 10:24 67.82491 20.34199 1461 ft 15 kts 34°
2026-05-01 10:24 67.82707 20.34582 1455 ft 21 kts 33°
2026-05-01 10:25 67.82958 20.35017 1444 ft 25 kts 33°
2026-05-01 10:25 67.83120 20.35249 1439 ft 2 kts 93°
2026-05-01 10:26 67.83113 20.35260 1439 ft 2 kts 144°
2026-05-01 10:26 67.83103 20.35257 1440 ft 1 kts 189°
2026-05-01 10:26 67.83016 20.35126 1434 ft 27 kts 212°
2026-05-01 10:27 67.81943 20.33201 1557 ft 142 kts 216°
2026-05-01 10:27 67.80356 20.30537 3144 ft 142 kts 202°
2026-05-01 10:28 67.79280 20.30805 3600 ft 171 kts 173°
2026-05-01 10:28 67.76706 20.33013 4056 ft 216 kts 170°
2026-05-01 10:28 67.75199 20.34309 4248 ft 241 kts 170°
2026-05-01 10:29 67.71699 20.36122 5158 ft 262 kts 191°
2026-05-01 10:29 67.69909 20.35424 5859 ft 260 kts 201°
2026-05-01 10:30 67.66323 20.33298 7279 ft 269 kts 201°
2026-05-01 10:30 67.62607 20.31116 8688 ft 278 kts 199°
2026-05-01 10:31 67.58773 20.28904 10052 ft 286 kts 199°
2026-05-01 10:31 67.54620 20.26481 10458 ft 326 kts 198°
2026-05-01 10:32 67.50070 20.23877 11460 ft 339 kts 198°
2026-05-01 10:32 67.47782 20.22558 12056 ft 342 kts 198°
2026-05-01 10:32 67.43085 20.19881 13284 ft 348 kts 198°
2026-05-01 10:33 67.38309 20.17156 14395 ft 354 kts 199°
2026-05-01 10:33 67.33452 20.14640 15526 ft 360 kts 195°
2026-05-01 10:34 67.30961 20.13700 16092 ft 363 kts 195°
2026-05-01 10:34 67.28451 20.12779 16676 ft 365 kts 195°
2026-05-01 10:34 67.25923 20.11842 17210 ft 367 kts 196°
2026-05-01 10:35 67.20840 20.09928 18346 ft 371 kts 196°
2026-05-01 10:35 67.18274 20.08972 18840 ft 374 kts 197°
2026-05-01 10:35 67.15690 20.08002 19333 ft 376 kts 197°
2026-05-01 10:35 67.13098 20.07037 19829 ft 378 kts 197°
2026-05-01 10:36 67.07864 20.05112 20836 ft 382 kts 198°
2026-05-01 10:36 67.05226 20.04137 21336 ft 384 kts 198°
2026-05-01 10:36 67.02606 20.03178 21802 ft 386 kts 198°
2026-05-01 10:37 66.99937 20.02192 22264 ft 388 kts 198°
2026-05-01 10:37 66.94559 20.00212 23133 ft 392 kts 199°
2026-05-01 10:37 66.91845 19.99203 23471 ft 395 kts 199°
2026-05-01 10:38 66.89109 19.98210 23791 ft 398 kts 199°
2026-05-01 10:38 66.86357 19.97217 24119 ft 400 kts 199°
2026-05-01 10:38 66.83595 19.96222 24457 ft 402 kts 199°
2026-05-01 10:38 66.80823 19.95213 24797 ft 403 kts 199°
2026-05-01 10:39 66.78036 19.94216 25130 ft 405 kts 199°
2026-05-01 10:39 66.75236 19.93211 25478 ft 407 kts 199°
2026-05-01 10:39 66.72429 19.92213 25811 ft 408 kts 199°
2026-05-01 10:39 66.69609 19.91189 26121 ft 409 kts 199°
2026-05-01 10:40 66.66774 19.90158 26392 ft 413 kts 199°
2026-05-01 10:40 66.63920 19.89146 26657 ft 416 kts 198°
2026-05-01 10:40 66.61075 19.88147 26956 ft 418 kts 198°
2026-05-01 10:40 66.58188 19.87131 27259 ft 420 kts 198°
2026-05-01 10:41 66.55290 19.86110 27552 ft 422 kts 198°
2026-05-01 10:41 66.52383 19.85077 27864 ft 423 kts 199°
2026-05-01 10:41 66.46529 19.83022 28395 ft 426 kts 198°
2026-05-01 10:42 66.43581 19.81991 28667 ft 428 kts 199°
2026-05-01 10:42 66.40630 19.80952 28932 ft 429 kts 198°
2026-05-01 10:42 66.37666 19.79903 29193 ft 430 kts 198°
2026-05-01 10:42 66.34696 19.78862 29432 ft 432 kts 198°
2026-05-01 10:43 66.31711 19.77826 29687 ft 433 kts 198°
2026-05-01 10:43 66.28725 19.76795 29868 ft 435 kts 198°
2026-05-01 10:43 66.25714 19.75746 30059 ft 437 kts 198°
2026-05-01 10:43 66.22706 19.74692 30303 ft 436 kts 198°
2026-05-01 10:44 66.19698 19.73663 30579 ft 436 kts 198°
2026-05-01 10:44 66.16733 19.72668 30841 ft 435 kts 198°
2026-05-01 10:44 66.13733 19.71647 31108 ft 434 kts 198°
2026-05-01 10:44 66.10745 19.70614 31373 ft 434 kts 198°
2026-05-01 10:45 66.07751 19.69604 31638 ft 434 kts 198°
2026-05-01 10:45 66.04761 19.68587 31880 ft 433 kts 198°
2026-05-01 10:45 66.01779 19.67560 32142 ft 433 kts 198°
2026-05-01 10:45 65.98798 19.66548 32392 ft 432 kts 198°
2026-05-01 10:46 65.95820 19.65541 32571 ft 432 kts 198°
2026-05-01 10:46 65.92839 19.64539 32771 ft 433 kts 198°
2026-05-01 10:46 65.89853 19.63533 32999 ft 433 kts 198°
2026-05-01 10:46 65.86873 19.62518 33252 ft 432 kts 198°
2026-05-01 10:47 65.83892 19.61527 33472 ft 433 kts 198°
2026-05-01 10:47 65.80911 19.60541 33712 ft 432 kts 198°
2026-05-01 10:47 65.77935 19.59546 33965 ft 431 kts 198°
2026-05-01 10:47 65.74965 19.58554 34172 ft 431 kts 198°
2026-05-01 10:48 65.71987 19.57585 34346 ft 431 kts 198°
2026-05-01 10:48 65.69016 19.56606 34514 ft 431 kts 198°
2026-05-01 10:48 65.66039 19.55613 34672 ft 432 kts 198°
2026-05-01 10:48 65.63061 19.54638 34793 ft 432 kts 197°
2026-05-01 10:49 65.60118 19.53670 34914 ft 432 kts 197°
2026-05-01 10:49 65.54159 19.51698 34998 ft 432 kts 197°
2026-05-01 10:50 65.48199 19.49790 35005 ft 431 kts 197°
2026-05-01 10:50 65.42255 19.47860 35008 ft 431 kts 197°
2026-05-01 10:51 65.36309 19.45932 35015 ft 431 kts 197°
2026-05-01 10:51 65.30356 19.44030 34975 ft 432 kts 197°
2026-05-01 10:52 65.24386 19.42104 35016 ft 434 kts 197°
2026-05-01 10:52 65.18428 19.40206 35006 ft 436 kts 197°
2026-05-01 10:53 65.12407 19.38290 35014 ft 437 kts 197°
2026-05-01 10:53 65.06363 19.36374 35021 ft 438 kts 196°
2026-05-01 10:54 65.00311 19.34468 35026 ft 439 kts 196°
2026-05-01 10:54 64.94239 19.32604 35001 ft 441 kts 196°
2026-05-01 10:55 64.88154 19.30683 35009 ft 442 kts 196°
2026-05-01 10:55 64.82048 19.28780 35039 ft 443 kts 196°
2026-05-01 10:56 64.76958 19.27244 35042 ft 443 kts 196°
2026-05-01 10:56 64.70838 19.25356 35052 ft 443 kts 196°
2026-05-01 10:57 64.64715 19.23453 35025 ft 444 kts 195°
2026-05-01 10:57 64.58569 19.21604 35036 ft 445 kts 195°
2026-05-01 10:58 64.52411 19.19737 35041 ft 446 kts 195°
2026-05-01 10:58 64.46252 19.17867 35062 ft 446 kts 195°
2026-05-01 10:59 64.40090 19.15993 35071 ft 447 kts 195°
2026-05-01 10:59 64.33953 19.14190 35045 ft 447 kts 195°
2026-05-01 11:00 64.27780 19.12343 35064 ft 447 kts 195°
2026-05-01 11:00 64.21609 19.10500 35081 ft 447 kts 195°
2026-05-01 11:01 64.15421 19.08684 35088 ft 447 kts 195°
2026-05-01 11:01 64.09240 19.06884 35096 ft 447 kts 195°
2026-05-01 11:02 64.03109 19.05086 35054 ft 447 kts 194°
2026-05-01 11:02 63.96900 19.03294 35083 ft 446 kts 194°
2026-05-01 11:03 63.90775 19.01527 35094 ft 446 kts 194°
2026-05-01 11:03 63.84625 18.99717 35100 ft 446 kts 194°
2026-05-01 11:04 63.78461 18.97944 35089 ft 446 kts 194°
2026-05-01 11:04 63.72298 18.96192 35076 ft 447 kts 194°
2026-05-01 11:05 63.66137 18.94441 35098 ft 446 kts 194°
2026-05-01 11:05 63.59977 18.92703 35104 ft 446 kts 194°
2026-05-01 11:06 63.53823 18.90976 35106 ft 445 kts 194°
2026-05-01 11:06 63.47672 18.89233 35103 ft 445 kts 194°
2026-05-01 11:07 63.38493 18.86683 35101 ft 445 kts 194°
2026-05-01 11:07 63.32347 18.84938 35102 ft 445 kts 194°
2026-05-01 11:08 63.26195 18.83254 35123 ft 445 kts 194°
2026-05-01 11:09 63.16972 18.80709 35130 ft 445 kts 194°
2026-05-01 11:09 63.10828 18.79050 35102 ft 445 kts 194°
2026-05-01 11:10 63.01601 18.76502 35118 ft 446 kts 194°
2026-05-01 11:10 62.95437 18.74845 35131 ft 446 kts 194°
2026-05-01 11:11 62.89307 18.73198 35135 ft 447 kts 194°
2026-05-01 11:11 62.83133 18.71545 35143 ft 447 kts 194°
2026-05-01 11:12 62.76966 18.69874 35115 ft 447 kts 194°
2026-05-01 11:12 62.70798 18.68238 35140 ft 447 kts 194°
2026-05-01 11:13 62.64627 18.66605 35152 ft 447 kts 194°
2026-05-01 11:13 62.58440 18.64974 35161 ft 447 kts 194°
2026-05-01 11:14 62.52271 18.63362 35164 ft 447 kts 194°
2026-05-01 11:14 62.46142 18.61749 35141 ft 446 kts 194°
2026-05-01 11:15 62.39970 18.60135 35148 ft 446 kts 194°
2026-05-01 11:15 62.33799 18.58548 35153 ft 447 kts 194°
2026-05-01 11:16 62.27626 18.56919 35153 ft 447 kts 194°
2026-05-01 11:16 62.21443 18.55348 35158 ft 447 kts 194°
2026-05-01 11:17 62.15261 18.53750 35131 ft 447 kts 194°
2026-05-01 11:17 62.09067 18.52167 35150 ft 448 kts 194°
2026-05-01 11:18 62.02914 18.50616 35163 ft 448 kts 193°
2026-05-01 11:18 61.96714 18.49041 35167 ft 449 kts 193°
2026-05-01 11:19 61.90518 18.47465 35168 ft 449 kts 194°
2026-05-01 11:19 61.84303 18.45913 35146 ft 449 kts 193°
2026-05-01 11:20 61.78092 18.44354 35155 ft 450 kts 193°
2026-05-01 11:20 61.71878 18.42803 35162 ft 450 kts 193°
2026-05-01 11:21 61.65653 18.41279 35169 ft 450 kts 193°
2026-05-01 11:21 61.59438 18.39706 35173 ft 450 kts 193°
2026-05-01 11:22 61.53210 18.38171 35143 ft 451 kts 193°
2026-05-01 11:22 61.46976 18.36654 35164 ft 451 kts 193°
2026-05-01 11:23 61.40767 18.35125 35168 ft 452 kts 193°
2026-05-01 11:23 61.34517 18.33616 35164 ft 452 kts 193°
2026-05-01 11:24 61.28262 18.32099 35136 ft 452 kts 193°
2026-05-01 11:25 61.18886 18.29840 35162 ft 452 kts 193°
2026-05-01 11:25 61.09537 18.27609 35163 ft 452 kts 193°
2026-05-01 11:26 61.00160 18.25361 35148 ft 453 kts 192°
2026-05-01 11:27 60.93893 18.23850 35128 ft 454 kts 192°
2026-05-01 11:27 60.87613 18.22384 35142 ft 454 kts 192°
2026-05-01 11:28 60.81324 18.20879 35150 ft 455 kts 192°
2026-05-01 11:28 60.75030 18.19448 35147 ft 455 kts 192°
2026-05-01 11:29 60.65590 18.17236 35125 ft 455 kts 192°
2026-05-01 11:30 60.56185 18.15061 35145 ft 456 kts 192°
2026-05-01 11:30 60.49876 18.13580 35157 ft 456 kts 192°
2026-05-01 11:31 60.43565 18.12162 35154 ft 456 kts 192°
2026-05-01 11:31 60.37262 18.10683 35153 ft 456 kts 192°
2026-05-01 11:32 60.30960 18.09268 35155 ft 456 kts 192°
2026-05-01 11:32 60.24653 18.07832 35153 ft 456 kts 192°
2026-05-01 11:33 60.18351 18.06396 35158 ft 456 kts 191°
2026-05-01 11:33 60.12040 18.04986 35155 ft 456 kts 192°
2026-05-01 11:34 60.05735 18.03567 35141 ft 456 kts 191°
2026-05-01 11:34 59.99423 18.02167 35148 ft 456 kts 191°
2026-05-01 11:35 59.93113 18.00747 35158 ft 456 kts 191°
2026-05-01 11:35 59.86795 17.99345 35167 ft 456 kts 191°
2026-05-01 11:36 59.80528 17.97963 35147 ft 456 kts 191°
2026-05-01 11:36 59.74210 17.96577 35165 ft 456 kts 191°
2026-05-01 11:37 59.67900 17.95199 35162 ft 457 kts 191°
2026-05-01 11:37 59.61563 17.93810 35153 ft 459 kts 191°
2026-05-01 11:38 59.55216 17.92420 35156 ft 459 kts 191°
2026-05-01 11:38 59.48859 17.91035 35168 ft 460 kts 190°
2026-05-01 11:39 59.42494 17.89656 35183 ft 461 kts 190°
2026-05-01 11:39 59.36112 17.88286 35191 ft 461 kts 190°
2026-05-01 11:40 59.29717 17.86925 35202 ft 461 kts 190°
2026-05-01 11:40 59.23373 17.85558 35202 ft 462 kts 190°
2026-05-01 11:41 59.16982 17.84188 35191 ft 462 kts 190°
2026-05-01 11:41 59.10581 17.82832 35199 ft 462 kts 190°
2026-05-01 11:42 59.04183 17.81488 35209 ft 463 kts 190°
2026-05-01 11:42 58.97784 17.80144 35211 ft 462 kts 190°
2026-05-01 11:43 58.91389 17.78800 35217 ft 462 kts 189°
2026-05-01 11:43 58.84997 17.77465 35223 ft 462 kts 189°
2026-05-01 11:44 58.75458 17.75480 35235 ft 462 kts 189°
2026-05-01 11:44 58.69077 17.74153 35236 ft 462 kts 189°
2026-05-01 11:45 58.62709 17.72825 35222 ft 462 kts 188°
2026-05-01 11:45 58.56321 17.71526 35234 ft 461 kts 189°
2026-05-01 11:46 58.49939 17.70205 35236 ft 462 kts 189°
2026-05-01 11:46 58.43549 17.68904 35252 ft 462 kts 189°
2026-05-01 11:47 58.37157 17.67610 35232 ft 463 kts 188°
2026-05-01 11:47 58.31826 17.66542 35230 ft 463 kts 188°
2026-05-01 11:48 58.25406 17.65259 35239 ft 464 kts 188°
2026-05-01 11:48 58.18975 17.63950 35245 ft 465 kts 188°
2026-05-01 11:49 58.12539 17.62674 35253 ft 465 kts 188°
2026-05-01 11:49 58.06107 17.61391 35251 ft 465 kts 188°
2026-05-01 11:50 57.99661 17.60085 35254 ft 465 kts 188°
2026-05-01 11:50 57.93227 17.58834 35260 ft 465 kts 187°
2026-05-01 11:51 57.86830 17.57541 35271 ft 465 kts 188°
2026-05-01 11:51 57.80392 17.56285 35260 ft 465 kts 187°
2026-05-01 11:52 57.73956 17.55022 35261 ft 465 kts 188°
2026-05-01 11:52 57.67520 17.53754 35264 ft 465 kts 187°
2026-05-01 11:53 57.61078 17.52513 35269 ft 465 kts 187°
2026-05-01 11:53 57.54636 17.51273 35265 ft 465 kts 187°
2026-05-01 11:54 57.48201 17.50000 35278 ft 465 kts 187°
2026-05-01 11:54 57.41757 17.48750 35281 ft 465 kts 187°
2026-05-01 11:55 57.35364 17.47553 35280 ft 465 kts 187°
2026-05-01 11:55 57.28930 17.46308 35275 ft 465 kts 188°
2026-05-01 11:56 57.22488 17.45106 35274 ft 465 kts 187°
2026-05-01 11:56 57.16044 17.43873 35268 ft 465 kts 187°
2026-05-01 11:57 57.09603 17.42650 35274 ft 465 kts 187°
2026-05-01 11:57 57.03164 17.41437 35288 ft 465 kts 187°
2026-05-01 11:58 56.96719 17.40198 35275 ft 465 kts 187°
2026-05-01 11:59 56.87048 17.38400 35297 ft 466 kts 187°
2026-05-01 11:59 56.80646 17.37179 35295 ft 466 kts 187°
2026-05-01 12:00 56.70965 17.35412 35302 ft 466 kts 186°
2026-05-01 12:01 56.61284 17.33621 35298 ft 466 kts 186°
2026-05-01 12:01 56.54826 17.32439 35305 ft 467 kts 186°
2026-05-01 12:02 56.48359 17.31258 35301 ft 467 kts 186°
2026-05-01 12:02 56.41892 17.30058 35305 ft 467 kts 186°
2026-05-01 12:03 56.35424 17.28907 35316 ft 467 kts 186°
2026-05-01 12:03 56.29004 17.27732 35317 ft 467 kts 186°
2026-05-01 12:04 56.22538 17.26569 35320 ft 467 kts 186°
2026-05-01 12:04 56.16074 17.25380 35319 ft 467 kts 186°
2026-05-01 12:05 56.09598 17.24231 35326 ft 467 kts 186°
2026-05-01 12:05 55.99899 17.22511 35333 ft 467 kts 186°
2026-05-01 12:06 55.93429 17.21351 34948 ft 467 kts 186°
2026-05-01 12:06 55.90171 17.20765 33869 ft 476 kts 186°
2026-05-01 12:06 55.86863 17.20179 32859 ft 475 kts 185°
2026-05-01 12:07 55.83595 17.19594 31555 ft 469 kts 185°
2026-05-01 12:07 55.80372 17.19035 30541 ft 459 kts 185°
2026-05-01 12:07 55.77270 17.18498 30081 ft 438 kts 185°
2026-05-01 12:07 55.74264 17.17974 29753 ft 428 kts 185°
2026-05-01 12:08 55.71364 17.17460 29255 ft 410 kts 185°
2026-05-01 12:08 55.68534 17.16991 28808 ft 408 kts 182°
2026-05-01 12:08 55.65704 17.17057 28325 ft 405 kts 174°
2026-05-01 12:08 55.62931 17.17728 27859 ft 401 kts 165°
2026-05-01 12:09 55.60269 17.19108 27423 ft 396 kts 156°
2026-05-01 12:09 55.57751 17.21034 26983 ft 393 kts 152°
2026-05-01 12:09 55.55277 17.23071 26486 ft 392 kts 152°
2026-05-01 12:09 55.52807 17.25079 26037 ft 390 kts 153°
2026-05-01 12:10 55.50381 17.27034 25599 ft 388 kts 153°
2026-05-01 12:10 55.45495 17.30972 24693 ft 384 kts 153°
2026-05-01 12:10 55.43072 17.32924 24253 ft 382 kts 153°
2026-05-01 12:11 55.38258 17.36767 23300 ft 377 kts 153°
2026-05-01 12:11 55.35891 17.38656 22935 ft 370 kts 153°
2026-05-01 12:11 55.33585 17.40487 22846 ft 357 kts 153°
2026-05-01 12:12 55.31339 17.42280 22433 ft 354 kts 152°
2026-05-01 12:12 55.29108 17.44066 22013 ft 351 kts 152°
2026-05-01 12:12 55.26894 17.45829 21603 ft 348 kts 152°
2026-05-01 12:12 55.24695 17.47573 21198 ft 346 kts 152°
2026-05-01 12:13 55.22508 17.49299 20784 ft 344 kts 152°
2026-05-01 12:13 55.20336 17.51018 20378 ft 342 kts 153°
2026-05-01 12:13 55.18162 17.52699 19971 ft 340 kts 153°
2026-05-01 12:13 55.15997 17.54362 19560 ft 339 kts 153°
2026-05-01 12:14 55.13842 17.56018 19150 ft 338 kts 153°
2026-05-01 12:14 55.11695 17.57665 18741 ft 337 kts 153°
2026-05-01 12:14 55.09543 17.59314 18282 ft 337 kts 153°
2026-05-01 12:14 55.07405 17.60945 17866 ft 335 kts 153°
2026-05-01 12:15 55.05308 17.62552 17455 ft 333 kts 153°
2026-05-01 12:15 55.03166 17.64188 17031 ft 331 kts 154°
2026-05-01 12:15 55.01015 17.65761 16265 ft 341 kts 155°
2026-05-01 12:15 54.98812 17.67340 15741 ft 342 kts 155°
2026-05-01 12:16 54.96653 17.68882 15013 ft 337 kts 155°
2026-05-01 12:16 54.94489 17.70423 14171 ft 335 kts 154°
2026-05-01 12:16 54.92341 17.71959 13291 ft 332 kts 155°
2026-05-01 12:16 54.90249 17.73439 12823 ft 316 kts 155°
2026-05-01 12:17 54.88239 17.74869 12456 ft 312 kts 154°
2026-05-01 12:17 54.86232 17.76313 12033 ft 312 kts 155°
2026-05-01 12:17 54.84225 17.77748 11619 ft 312 kts 155°
2026-05-01 12:17 54.82217 17.79177 11205 ft 312 kts 155°
2026-05-01 12:18 54.80209 17.80605 10792 ft 312 kts 155°
2026-05-01 12:18 54.78198 17.82033 10426 ft 310 kts 155°
2026-05-01 12:18 54.76237 17.83424 10299 ft 299 kts 155°
2026-05-01 12:18 54.74309 17.84794 9884 ft 300 kts 155°
2026-05-01 12:19 54.72376 17.86162 9498 ft 299 kts 155°
2026-05-01 12:19 54.70450 17.87522 9117 ft 298 kts 155°
2026-05-01 12:19 54.68533 17.88879 8740 ft 298 kts 155°
2026-05-01 12:19 54.66619 17.90230 8366 ft 297 kts 155°
2026-05-01 12:20 54.64713 17.91575 8000 ft 296 kts 155°
2026-05-01 12:20 54.62806 17.92920 7613 ft 296 kts 155°
2026-05-01 12:20 54.60927 17.94238 7237 ft 295 kts 155°
2026-05-01 12:20 54.59029 17.95568 6858 ft 294 kts 155°
2026-05-01 12:21 54.57139 17.96896 6462 ft 293 kts 155°
2026-05-01 12:21 54.55244 17.98225 6020 ft 291 kts 156°
2026-05-01 12:21 54.53386 17.99526 5365 ft 285 kts 157°
2026-05-01 12:21 54.51605 18.00817 5053 ft 268 kts 153°
2026-05-01 12:22 54.50083 18.02415 4996 ft 250 kts 142°
2026-05-01 12:22 54.48748 18.04302 5042 ft 242 kts 140°
2026-05-01 12:22 54.47673 18.06384 4987 ft 229 kts 117°
2026-05-01 12:22 54.46998 18.08841 5002 ft 226 kts 110°
2026-05-01 12:23 54.46397 18.11340 5000 ft 225 kts 109°
2026-05-01 12:23 54.45800 18.13834 4900 ft 225 kts 110°
2026-05-01 12:23 54.45208 18.16238 4601 ft 217 kts 111°
2026-05-01 12:23 54.44629 18.18601 4235 ft 211 kts 111°
2026-05-01 12:24 54.44077 18.20884 3917 ft 201 kts 112°
2026-05-01 12:24 54.43548 18.23049 3620 ft 191 kts 112°
2026-05-01 12:24 54.43055 18.25091 3323 ft 181 kts 113°
2026-05-01 12:24 54.42583 18.27034 3048 ft 173 kts 114°
2026-05-01 12:25 54.42122 18.28904 2795 ft 169 kts 114°
2026-05-01 12:25 54.41219 18.32550 2281 ft 164 kts 113°
2026-05-01 12:25 54.40785 18.34346 2020 ft 163 kts 114°
2026-05-01 12:26 54.40341 18.36151 1775 ft 163 kts 113°
2026-05-01 12:26 54.39451 18.39734 1273 ft 164 kts 112°
2026-05-01 12:26 54.39016 18.41505 1022 ft 157 kts 111°
2026-05-01 12:27 54.38597 18.43198 779 ft 151 kts 109°
2026-05-01 12:27 54.37817 18.46374 458 ft 128 kts 111°
2026-05-01 12:28 54.37470 18.47780 467 ft 26 kts 113°
2026-05-01 12:28 54.37402 18.48052 472 ft 23 kts 112°
2026-05-01 12:28 54.37296 18.48499 489 ft 18 kts 103°
2026-05-01 12:29 54.37371 18.48638 487 ft 15 kts 24°
2026-05-01 12:29 54.37455 18.48567 485 ft 18 kts 293°
2026-05-01 12:29 54.37572 18.48094 474 ft 20 kts 293°
2026-05-01 12:30 54.37693 18.47604 462 ft 23 kts 293°
2026-05-01 12:30 54.37754 18.47359 460 ft 21 kts 293°
2026-05-01 12:30 54.37811 18.47128 457 ft 19 kts 293°
2026-05-01 12:31 54.37852 18.47059 459 ft 5 kts 12°
2026-05-01 12:31 54.37892 18.47084 459 ft 8 kts 22°
2026-05-01 12:31 54.37910 18.47098 459 ft 0 kts 23°